RH
18 17 17 15 16 17 19 19 18 19 20 20 21 21 21 21 21 23 23 24 24 20 17 17 17 15 19 27 32 32 34 34 33 34 34 36 40 46 50 51 50 48 47 49 49 49 51 52 53 54 55 57 58 60 62 59 56 57 61 62 58 57 64 69 65 60 56 53 52 50 46 42 37 34 32 30 30 28 27 23 18 17 21 28 30 30
19 18 18 18 19 21 22 23 21 20 22 22 22 22 22 21 23 24 23 24 26 22 19 19 18 18 23 30 33 34 38 38 35 35 37 40 45 50 51 53 51 49 49 49 47 49 51 52 53 54 53 55 56 57 63 62 58 61 62 59 58 59 66 72 65 56 54 52 49 47 45 42 39 35 34 31 29 27 25 21 17 15 17 23 28 30
20 18 18 20 23 24 24 24 21 22 25 25 24 23 21 21 24 26 25 25 26 23 21 19 19 21 26 29 33 36 39 41 40 38 42 45 49 50 51 53 51 48 49 49 48 48 50 51 53 53 52 53 52 54 63 64 61 66 63 59 60 58 61 65 59 52 51 50 48 48 47 45 42 39 37 34 31 29 26 22 19 16 14 17 22 26
20 17 19 23 24 23 24 25 23 24 28 27 25 22 20 22 25 25 26 26 27 26 24 22 22 24 27 31 34 36 39 44 45 45 46 48 50 51 51 52 50 49 49 50 50 48 48 49 51 51 50 51 52 54 60 61 65 71 66 60 60 59 60 59 53 51 51 49 49 50 50 48 46 43 40 37 33 31 30 27 23 19 17 17 18 19
19 20 23 25 24 23 25 27 25 24 27 29 28 23 21 24 25 25 27 29 28 29 29 26 26 27 29 35 37 36 39 44 46 48 50 51 52 52 53 52 49 49 49 50 50 48 48 48 49 50 47 48 53 56 55 55 62 67 60 57 58 59 60 54 51 52 50 49 48 48 49 48 47 46 44 40 36 33 32 32 28 22 20 21 20 18
20 22 24 25 26 24 24 26 26 25 26 28 28 25 23 24 27 27 29 30 28 29 32 29 28 29 30 33 35 35 37 42 45 48 51 52 54 54 55 52 48 49 49 50 51 50 50 51 50 51 47 46 51 55 53 52 55 53 48 54 57 57 56 52 50 50 49 49 48 46 46 46 46 46 45 43 39 36 35 36 30 25 24 24 23 21
23 24 26 28 29 27 24 25 27 27 25 25 27 28 26 25 28 30 29 29 28 31 36 34 29 31 32 30 33 33 35 40 45 47 49 51 53 54 56 53 49 50 50 50 52 52 53 52 52 53 50 48 53 55 52 50 50 45 44 54 58 56 55 53 52 50 50 49 46 45 46 45 45 46 46 44 42 38 37 36 31 28 26 24 24 23
26 28 31 32 32 29 25 24 27 26 23 25 30 30 26 24 28 31 29 29 32 33 36 36 31 32 34 32 33 35 35 39 43 46 47 50 52 54 56 54 51 51 51 52 54 54 54 52 51 52 52 53 58 59 54 48 48 46 48 54 57 59 61 57 52 51 51 48 44 47 49 47 47 47 46 46 44 40 37 35 32 30 27 25 25 25
31 32 33 33 32 30 26 26 30 28 25 28 32 31 28 27 29 30 29 30 35 34 33 36 34 33 35 35 35 36 35 37 40 41 43 47 52 55 55 55 54 52 51 53 54 54 55 53 54 58 61 64 66 64 60 55 51 51 53 56 58 63 65 59 55 53 50 47 46 49 51 51 50 48 47 48 45 41 38 37 36 34 30 27 25 24
31 31 32 32 30 30 30 30 32 30 28 31 33 30 28 29 30 30 29 30 35 34 34 38 38 34 35 35 35 36 36 36 37 38 39 42 48 52 54 56 56 53 52 53 53 54 56 57 65 73 75 76 74 68 66 61 56 56 57 58 61 66 67 61 57 55 49 46 46 48 50 52 52 51 52 51 46 43 43 42 40 39 35 31 27 25
31 31 32 31 29 30 32 32 33 32 31 32 30 27 27 28 29 30 29 30 32 34 36 40 42 38 36 36 36 37 38 38 39 39 40 40 43 47 52 55 57 55 53 51 51 55 57 59 69 78 79 79 76 71 69 67 64 62 60 61 62 65 66 64 60 54 49 47 48 49 51 54 55 55 55 54 50 45 44 42 42 41 39 36 31 26
32 31 31 31 31 31 31 31 31 33 32 30 28 27 28 30 30 30 30 30 30 34 37 41 44 42 37 38 39 40 40 41 42 43 43 43 43 44 47 52 57 56 52 50 50 53 56 58 63 69 74 79 78 74 75 76 74 70 67 66 67 66 68 69 63 53 49 50 48 49 54 58 60 60 59 60 55 48 44 43 43 42 39 36 33 28
32 31 30 31 32 30 30 31 31 31 31 28 27 28 28 31 32 31 32 32 31 32 35 39 43 42 39 39 40 43 44 45 47 48 48 49 49 47 47 50 55 57 54 52 52 52 55 57 59 60 65 72 77 78 81 82 78 75 73 69 71 71 72 75 68 55 51 52 48 49 57 63 66 65 64 64 58 50 46 47 47 45 40 38 37 34
32 33 31 30 32 32 31 32 32 31 31 28 28 30 29 31 35 36 36 36 33 33 35 37 39 40 39 40 42 44 45 47 51 53 54 55 54 53 53 54 56 59 59 58 55 54 56 58 58 60 62 66 73 75 76 79 79 77 76 75 77 78 77 77 71 59 54 54 51 52 60 67 69 68 65 63 58 51 48 49 51 50 45 44 43 38
35 34 33 31 33 34 32 32 33 33 33 31 30 31 31 32 34 35 35 35 35 36 38 38 37 36 36 39 42 44 47 50 53 55 56 57 57 57 57 57 58 59 61 62 59 56 58 61 61 65 66 65 68 69 68 73 78 78 77 78 80 81 79 75 70 63 58 56 55 56 61 66 68 66 63 61 57 51 50 51 52 52 50 48 45 40
38 36 35 34 35 34 34 34 34 33 34 35 33 31 33 34 35 36 38 39 38 38 40 39 38 36 35 38 40 42 47 50 52 54 54 55 56 57 56 56 56 56 56 57 58 59 61 63 65 72 76 73 69 69 69 73 78 79 79 78 78 80 78 70 65 61 56 55 56 58 61 65 67 67 63 60 59 55 52 52 53 55 53 50 47 44
42 41 39 37 35 35 36 37 36 35 35 38 36 34 36 36 36 38 41 42 40 37 39 40 39 38 36 36 37 40 44 44 45 48 48 49 50 50 52 52 52 53 51 51 55 60 64 66 66 68 74 79 76 71 71 74 79 81 82 81 81 83 77 65 59 56 53 55 59 61 63 66 69 71 69 66 62 56 52 53 57 59 57 53 50 48
46 46 43 40 38 38 38 39 39 37 37 38 38 38 38 37 37 37 39 40 39 35 37 39 40 41 38 36 36 38 42 42 42 44 46 49 49 50 53 53 52 52 51 53 57 61 66 71 69 61 63 78 84 75 71 77 80 80 81 80 80 82 76 64 58 58 56 58 60 62 65 67 69 71 68 65 59 52 49 52 59 62 59 54 51 49
50 48 46 44 43 42 41 40 40 40 38 38 38 39 39 38 38 38 38 40 38 36 37 38 40 41 37 36 37 38 42 45 47 48 50 52 52 54 56 55 53 52 52 56 61 64 68 72 69 59 57 73 82 76 73 77 79 77 76 75 73 76 76 69 66 64 61 59 60 61 61 59 59 60 58 56 52 48 47 50 56 60 57 53 50 49
55 52 50 47 44 44 42 42 42 42 40 39 38 38 39 39 40 40 40 40 38 39 40 39 40 38 35 38 39 39 43 48 50 52 53 54 55 57 58 56 54 54 54 56 59 62 67 72 70 62 61 70 74 74 74 76 77 76 74 71 66 67 70 69 67 63 58 55 55 56 56 53 52 52 52 51 48 46 48 52 57 57 54 50 50 51
57 54 53 51 47 45 43 43 43 42 42 40 38 39 40 39 40 41 43 42 40 40 41 39 39 37 37 41 40 40 44 47 49 51 53 56 59 60 60 57 55 55 56 59 60 62 65 69 68 66 68 71 70 73 75 73 75 76 71 66 61 59 60 58 57 54 50 50 52 55 58 57 54 50 50 51 49 47 52 57 56 52 50 49 50 52
58 55 56 54 50 47 45 45 45 44 43 42 41 41 41 41 41 42 44 46 42 41 41 38 36 36 39 43 43 42 43 44 47 49 51 55 58 60 61 59 57 57 59 62 64 65 65 65 64 65 69 68 66 69 71 70 73 72 65 60 56 54 54 54 52 51 50 51 53 55 58 59 56 51 49 51 50 48 52 55 51 45 46 48 49 52
61 59 58 55 51 49 49 47 46 46 44 44 44 45 44 44 44 42 43 46 45 44 42 38 35 36 41 46 48 47 46 46 48 48 48 51 54 55 56 57 57 57 60 63 63 63 65 66 65 65 67 66 63 64 65 68 70 69 63 60 55 53 55 55 53 51 49 49 49 50 53 55 55 52 48 46 46 47 50 52 50 48 50 51 53 58
65 62 60 58 53 49 49 49 48 46 46 45 47 48 48 47 47 46 45 46 46 46 43 40 37 38 44 49 51 52 50 50 52 50 48 50 53 54 55 56 55 54 56 58 58 60 64 67 67 66 65 65 63 61 62 65 66 64 63 61 58 56 56 54 52 50 47 46 46 47 48 50 53 53 49 45 44 48 52 55 55 56 56 54 55 61
66 65 62 62 60 55 51 51 49 47 47 47 48 50 50 50 50 50 49 46 45 47 43 39 39 42 47 52 54 54 53 52 52 52 50 51 53 56 58 59 58 58 57 54 53 57 64 69 70 68 67 67 66 63 63 65 65 64 63 61 59 58 56 53 53 52 51 50 49 48 48 49 53 54 51 46 44 47 52 56 56 56 56 54 54 58
67 70 67 63 63 61 57 53 52 51 51 50 50 50 50 51 50 48 47 44 43 47 46 41 41 45 50 53 54 53 52 50 49 50 50 52 55 58 57 57 58 59 59 56 54 57 62 66 67 66 65 66 67 67 66 65 65 66 65 64 62 60 58 56 55 54 55 57 55 52 50 51 52 53 51 47 44 45 50 56 59 59 57 54 52 54
68 71 69 67 64 62 60 58 58 58 56 53 53 52 52 54 53 48 46 45 45 48 48 45 46 48 51 53 53 52 50 48 47 47 47 49 54 56 55 54 54 55 56 57 58 59 61 62 63 63 62 61 61 64 65 65 66 66 66 66 64 61 61 61 60 60 61 61 61 58 55 53 53 53 51 49 45 44 47 52 57 60 58 55 52 53
71 69 69 70 68 64 63 62 61 61 60 57 56 55 56 57 56 51 48 48 48 47 47 51 53 51 51 52 53 53 50 47 46 46 45 48 51 54 54 53 52 52 52 53 54 56 57 58 59 58 57 58 60 62 63 63 65 67 67 67 66 63 62 62 63 65 66 65 65 64 61 57 54 52 51 52 52 52 51 52 55 57 57 57 59 60
73 72 71 71 69 66 65 64 63 64 64 63 61 61 61 60 58 56 56 55 52 48 49 54 57 54 53 54 54 54 52 48 46 46 46 49 52 54 53 53 54 53 53 53 54 55 55 56 58 57 57 60 63 64 63 62 64 67 67 68 68 67 67 67 67 66 68 70 70 70 68 63 56 53 53 55 58 59 58 57 57 57 57 60 63 65
70 72 74 72 69 68 67 65 64 65 66 66 66 66 67 66 65 65 64 60 56 54 54 56 56 55 55 54 54 55 54 51 49 49 50 52 54 54 53 54 57 58 58 57 57 58 58 58 59 59 60 61 61 62 62 62 64 65 66 67 67 65 65 67 69 70 71 73 73 71 69 65 58 54 54 56 58 58 58 59 60 61 63 66 68 67
67 72 75 74 72 73 71 69 67 67 68 69 68 67 66 65 66 65 63 59 55 55 58 57 55 55 55 54 53 55 55 53 52 52 55 56 57 56 56 57 59 60 61 59 58 58 58 58 59 60 60 57 54 54 55 56 59 61 63 64 64 63 60 61 66 70 73 75 74 71 70 67 62 58 57 60 62 62 61 61 63 65 66 68 69 67
68 72 74 72 72 73 72 71 70 69 68 66 65 66 65 64 63 62 61 60 57 55 56 54 51 51 52 51 51 52 53 54 55 57 61 62 60 59 59 61 61 60 59 59 58 58 57 56 57 59 60 57 52 51 52 55 57 57 57 57 57 57 57 57 62 66 69 70 71 71 71 71 68 64 64 68 68 67 66 64 63 65 67 66 65 62
68 69 68 68 68 70 71 70 68 67 65 62 61 65 66 64 63 62 60 59 58 55 52 50 50 51 51 48 48 49 50 53 55 58 62 65 64 64 64 63 60 58 57 57 57 57 57 56 56 58 61 59 55 55 56 59 60 58 56 54 52 52 52 54 57 60 61 61 62 63 64 65 66 66 67 70 70 67 67 65 65 66 64 61 58 53
66 65 65 63 63 66 67 65 65 64 61 60 62 65 65 62 61 61 61 60 60 57 54 52 52 51 48 47 46 46 48 50 52 56 60 64 66 67 67 65 60 57 56 56 56 57 57 57 57 59 61 60 58 57 57 58 58 57 56 55 54 53 53 55 56 55 53 53 52 52 52 54 57 59 60 63 64 64 64 65 64 63 59 55 51 47
61 61 62 60 60 66 68 66 67 64 58 58 61 61 61 60 58 58 58 58 58 56 54 51 49 46 44 44 45 45 46 48 50 53 58 64 67 69 71 71 66 61 58 57 57 57 57 57 58 60 61 61 60 58 58 58 59 60 63 64 63 61 62 63 64 61 56 53 49 47 48 50 52 53 52 55 57 57 57 57 56 55 52 50 48 46
58 59 62 61 63 69 71 69 69 65 61 61 61 58 58 58 56 55 54 54 54 53 52 49 46 45 44 44 45 46 45 46 48 51 57 63 67 69 71 72 70 68 66 63 61 61 61 60 61 61 61 62 61 61 60 60 60 62 67 69 70 71 73 74 75 72 67 63 57 54 53 53 53 53 53 53 54 54 53 53 52 51 50 49 48 47
62 61 63 64 66 68 68 66 65 64 63 62 59 58 58 57 56 54 54 54 54 53 53 51 49 48 47 47 49 49 46 46 47 50 53 56 59 61 63 62 62 66 68 66 67 70 71 70 70 71 70 65 62 62 62 61 63 68 73 75 74 74 75 77 78 77 73 69 67 67 66 65 62 61 61 60 59 59 58 57 55 53 52 51 50 49
67 66 66 68 69 67 66 67 67 64 61 57 56 57 57 59 63 62 58 58 57 56 57 55 55 54 52 51 52 52 50 49 49 50 51 51 53 54 55 54 54 57 58 57 59 65 70 72 74 75 74 70 66 65 64 66 70 75 78 78 75 73 72 73 74 74 72 69 67 69 73 75 74 71 69 68 66 64 63 62 61 61 59 58 56 54
67 70 70 71 71 69 68 69 69 67 63 60 59 61 62 67 72 70 65 62 59 57 59 58 58 59 57 56 55 54 53 53 53 52 51 50 51 51 52 53 53 54 56 56 55 56 59 62 63 64 66 68 69 68 66 66 68 70 72 71 69 68 69 69 67 67 68 69 67 67 71 74 75 75 72 71 69 68 68 68 69 69 66 63 61 60
57 61 63 65 68 68 69 72 73 72 71 68 68 69 69 72 74 72 68 64 60 59 61 62 63 63 61 59 58 57 57 57 57 56 55 55 55 54 54 56 57 59 62 64 64 61 59 59 61 64 66 67 69 68 67 66 64 66 67 67 67 68 69 67 64 60 61 65 68 71 73 73 74 76 75 73 72 73 74 75 74 73 69 66 64 63
56 58 60 62 65 66 69 74 77 76 73 71 71 73 73 75 75 71 66 63 62 62 63 65 67 66 64 62 62 62 63 62 61 61 60 60 59 59 59 60 62 63 65 65 67 68 67 67 68 71 71 71 72 72 71 69 69 68 68 68 68 69 69 68 64 59 58 61 64 66 68 69 70 72 73 73 73 74 75 75 74 71 68 66 65 64
67 68 69 70 71 72 73 76 81 80 76 72 73 75 76 78 78 73 69 68 67 68 68 70 72 71 70 69 69 70 70 69 69 68 67 66 66 65 64 63 64 65 66 67 68 69 70 71 71 72 72 71 71 71 69 68 69 70 70 71 71 69 67 66 65 62 61 62 61 60 59 58 59 61 62 65 69 73 74 73 71 67 64 63 63 64
70 73 76 78 79 80 80 83 86 86 82 80 80 81 83 85 83 80 77 76 75 75 76 79 81 81 80 78 78 78 78 78 78 79 79 78 77 76 75 73 71 70 70 71 71 70 70 71 69 69 69 68 66 65 63 62 62 63 66 69 71 69 67 65 64 62 61 60 60 59 58 58 57 57 58 60 64 68 71 70 69 67 65 63 64 64
61 65 71 74 76 78 82 85 85 83 82 82 84 85 88 89 87 85 85 84 82 82 82 82 84 85 85 86 85 85 84 84 85 85 86 86 85 85 84 83 81 79 77 76 74 72 71 71 69 67 66 65 65 65 64 63 63 64 66 68 67 66 66 64 62 61 61 61 61 62 62 61 61 59 59 59 60 62 63 63 63 63 63 63 64 65
53 56 60 64 68 71 75 78 79 79 80 80 81 83 85 86 86 87 87 86 85 84 84 83 84 85 86 87 87 87 87 87 87 86 86 86 86 84 83 82 81 81 79 78 77 75 73 72 71 69 67 66 66 66 66 66 66 66 68 68 66 64 64 64 63 63 63 64 64 64 64 63 62 61 60 60 60 59 60 59 58 57 57 57 58 59
50 51 52 56 60 64 67 71 73 74 76 76 77 80 81 81 82 81 81 82 81 81 81 81 82 84 85 85 85 85 85 85 84 83 83 82 82 81 80 79 78 78 77 76 75 74 72 71 70 68 67 66 66 65 65 64 64 64 65 66 66 64 63 62 63 64 66 66 65 65 64 64 64 65 65 65 64 62 61 61 60 58 57 56 55 55
49 49 49 52 55 57 60 65 65 65 66 67 68 71 74 76 78 78 77 77 78 78 77 77 78 79 80 80 79 79 79 79 79 79 79 78 77 75 74 72 71 70 68 68 66 65 64 63 62 61 59 58 57 57 57 58 58 59 60 61 61 60 58 57 57 59 62 64 66 66 66 66 66 67 67 67 68 67 65 64 62 61 59 58 57 56
50 50 51 53 53 53 55 58 57 56 57 58 58 60 62 65 69 72 74 75 76 77 77 76 75 74 73 73 73 73 73 73 73 73 73 73 71 70 68 66 65 63 62 60 59 57 56 55 55 53 52 52 52 52 52 52 53 54 55 55 55 53 51 50 49 50 51 56 63 68 70 70 69 68 66 66 67 67 67 66 66 65 64 62 60 59
50 49 50 52 53 53 53 54 54 54 55 55 55 56 56 57 59 61 63 65 67 69 70 69 69 68 67 66 66 66 66 66 66 66 67 66 66 65 65 63 62 61 60 59 57 55 54 54 53 53 52 51 50 49 48 48 49 51 52 52 52 49 47 45 44 43 43 46 52 59 65 68 69 69 68 67 66 65 64 64 63 62 61 60 58 55
44 44 46 48 49 50 51 51 52 52 52 53 53 53 53 52 52 52 51 50 50 51 52 53 54 55 56 57 57 58 58 59 59 59 60 60 60 60 60 58 58 56 55 53 51 50 48 46 45 44 43 41 40 39 38 38 40 42 43 44 45 45 43 42 40 39 40 41 44 48 52 55 57 59 60 61 60 60 60 59 59 59 58 55 51 50
40 41 43 43 44 44 44 44 45 44 43 44 44 43 43 43 43 42 42 42 41 42 42 42 42 43 44 45 45 47 47 47 47 48 48 48 48 48 47 46 44 42 41 39 37 36 35 34 33 33 32 31 31 30 30 30 31 32 34 35 36 36 37 37 37 36 36 37 38 40 42 44 45 45 46 48 50 51 52 52 54 57 58 55 53 51